Погода в Кутиале

Мали     12°23′19″N   5°27′47″W
темп.,
°C
ветер,
м/с
пор.,
м/с
влажн.,
%
обл.,
%
осадки,
мм/ч
давл.,
гПа
погр.,
м
24 января, пн
пн2400:00+21всв410120 0.0 1014173
03:00+19св36130 0.0 1014100
06:00+17св49145 0.0 1015159
09:00+22всв611110 0.0 1016451
12:00+30всв7878 0.0 10141350
15:00+32всв6667 0.0 10101897
18:00+28св4675 0.0 101183
21:00+24св491020 0.0 1014139
25 января, вт
вт2500:00+22всв4111286 0.0 1014201
03:00+19св48145 0.0 1013117
06:00+18всв49154 0.0 1014165
09:00+23всв7121113 0.0 1016466
12:00+29всв6774 0.0 10131316
15:00+32всв5565 0.0 10101887
18:00+28св4670 0.0 1010100
21:00+24св491069 0.0 1013130
26 января, ср
ср2600:00+22всв41113100 0.0 1013197
03:00+20всв412152 0.0 1011215
06:00+18всв4111767 0.0 1012213
09:00+23в712111 0.0 1014463
12:00+30в6770 0.0 10121356
15:00+33всв5554 0.0 10082050
18:00+30св3375 0.0 100933
21:00+25всв4490 0.0 101147
27 января, чт
чт2700:00+23св46100 0.0 101181
03:00+21всв49125 0.0 1010145
06:00+19всв49145 0.0 1011154
09:00+24в610105 0.0 1013369
12:00+33вюв5575 0.0 10111345
15:00+35юв4376 0.0 10082712
18:00+31юв33950 0.0 100817
21:00+27юв3312100 0.0 101015
28 января, пт
пт2800:00+25в331440 0.0 101028
03:00+22в461642 0.0 100977
06:00+20в331727 0.0 101136
09:00+26в691341 0.0 1012345
12:00+35вюв55862 0.0 10111688
15:00+36юв44821 0.0 10083112
18:00+33вюв3395 0.0 100824
21:00+28в33124 0.0 101128